Regional Weather Roundup
Issued by NWS

Home | Current Version | Previous Version | Text Only | Print | Product List | Glossary Off
Versions: 1 2 3 4 5 6 7 8 9 10 11 12 13 14 15 16 17 18 19 20 21 22 23 24 25 26 27 28 29 30 31 32 33 34 35 36 37 38 39 40 41 42 43 44 45 46 47 48 49 50

000
ASUS45 KSLC 271510
RWRUT

UTAH REGIONAL WEATHER ROUNDUP
NATIONAL WEATHER SERVICE SALT LAKE CITY UT
900 AM MDT THU AUG 27 2015

UTZ001>011-023>025-271600-

NORTHERN UTAH

CITY           SKY/WX    TMP DP  RH WIND       PRES   REMARKS
BRIGHAM CITY   SUNNY     66  57  74 CALM      30.26R
HILL AFB       MOSUNNY   68  55  64 E12       30.23F
LOGAN          SUNNY     60  57  89 W3        30.27R
OGDEN          SUNNY     69  57  65 S7        30.25S
PROVO AIRPORT  MOSUNNY   66  54  63 CALM      30.28S
SALT LAKE CITY MOSUNNY   71  56  58 SE10      30.24S
VERNAL         PTSUNNY   66  58  75 E5        30.27S
WENDOVER       MOSUNNY   68  52  56 E3        30.24S
HEBER CITY     CLOUDY    59  54  82 CALM      30.35R
WEST JORDAN    SUNNY     72  55  56 SE8       30.28R

$$

UTZ012>022-026-027-271600-

SOUTHERN/CENTRAL UTAH

CITY           SKY/WX    TMP DP  RH WIND       PRES   REMARKS
BLANDING       MOSUNNY   65  57  75 SE3       30.42S
BRYCE CANYON   SUNNY     60  50  69 NW3       30.47R
CEDAR CITY     SUNNY     59  56  89 W5        30.34R
DELTA          SUNNY     65  53  65 SE5       30.28F
HANKSVILLE     SUNNY     64  63  94 CALM      30.28S
MILFORD        SUNNY     63  55  75 S9        30.30R
MOAB/CYNLANDS  CLOUDY    67  64  90 NW6       30.24S
PRICE          SUNNY     63  58  83 CALM      30.32S
ST GEORGE      SUNNY     72  57  60 S3        30.22R
KANAB          SUNNY     64  61  88 CALM      30.38R

$$

REGIONAL REPORTS     COLORADO/ARIZONA

CITY           SKY/WX    TMP DP  RH WIND       PRES   REMARKS
CRAIG, CO      PTSUNNY   61  58  90 CALM      30.32S
GRAND JUNCTION LGT RAIN  61  61 100 E8        30.27S FOG
RIFLE          CLOUDY    63  59  87 CALM      30.30S
MONTROSE       CLOUDY    63  59  87 S6        30.34S
CORTEZ         CLOUDY    62  59  90 E3        30.36R
PAGE, AZ       SUNNY     71  58  63 N5        30.27R
GRAND CANYON   SUNNY     62  55  77 CALM      30.42R
KINGMAN        SUNNY     77  60  55 NW3       30.19R
FLAGSTAFF      SUNNY     63  57  81 NE8       30.44R

$$

REGIONAL REPORTS    NEVADA/IDAHO/WYOMING

CITY           SKY/WX    TMP DP  RH WIND       PRES   REMARKS
LAS VEGAS, NV  MOSUNNY   84  56  38 S3        30.06R
ELY            MOSUNNY   56  50  80 S8        30.38S
ELKO           SUNNY     61  45  55 E5        30.30R
POCATELLO, ID  SUNNY     65  54  67 NW3       30.24R
BURLEY         MOSUNNY   63  50  62 NE3       30.20R
EVANSTON, WY   FOG       55  54  96 SW14      30.40R VSB 1/4
ROCK SPRINGS   CLOUDY    57  55  93 W15       30.34R
KEMMERER       MOSUNNY   59  52  77 SW9       30.40S

$$



USA.gov is the U.S. government's official web portal to all federal, state and local government web resources and services.